Home   Weather   Lörrach   Past weeks

Flag for Germany Past Weather in Lörrach, Baden-Württemberg, Germany — Yesterday and Last 2 Weeks

Now
68 °F

Passing clouds.


Feels Like: 68 °F
Forecast: 43 / 60 °F
Wind: 6 mph from Northwest

Location: Bale-Mulhouse

Current Time: Apr 24, 2017 at 7:38:58 pm

Latest Report: Apr 24, 2017 at 7:00 pm


Visibility: N/A

Pressure: 29.86 "Hg

Humidity: 30%

Dew Point: 36 °F

Location of LörrachLocation

Past Weather in Lörrach — Graph

°F

Lörrach Temperature Yesterday

Maximum temperature yesterday: 57 °F (at 3:00 pm)
Minimum temperature yesterday: 41 °F (at 5:30 am)
Average temperature yesterday: 49 °F

High & Low Weather Summary for the Past Weeks

 TemperatureHumidityPressure
High77 °F (Apr 9, 6:30 pm)100% (Apr 17, 4:30 am)30.54 "Hg (Apr 17, 4:30 am)
Low25 °F (Apr 20, 7:00 am)19% (Apr 21, 6:00 pm)29.86 "Hg (Apr 24, 5:30 pm)
Average49 °F63%30.19 "Hg
* Reported Apr 9 6:00 pm — Apr 24 6:30 pm, Lörrach, Weather by CustomWeather, © 2017

Note: Actual official high and low records may vary slightly from our data, if they occured in-between our weather recording intervals... More about our weather records

Advertising

Lörrach Weather History for the Previous 24 Hours

Scroll right to see more
 ConditionsComfort  
Time TempWeatherWind HumidityBarometerVisibility
6:30 pm
Mon, Apr 24
68 °FPassing clouds.7 mph33%29.86 "HgN/A
6:00 pm70 °FPassing clouds.6 mph31%29.86 "HgN/A
5:30 pm70 °FPassing clouds.8 mph33%29.86 "HgN/A
5:00 pm70 °FPassing clouds.7 mph29%29.89 "HgN/A
4:30 pm70 °FSunny.5 mph31%29.89 "Hg10 mi
4:00 pm68 °FPassing clouds.8 mph30%29.92 "HgN/A
3:30 pm68 °FPassing clouds.7 mph30%29.92 "HgN/A
3:00 pm68 °FSunny.3 mph28%29.95 "Hg10 mi
2:30 pm66 °FSunny.6 mph30%29.95 "Hg10 mi
1:30 pm63 °FPassing clouds.6 mph34%29.98 "HgN/A
1:00 pm61 °FSunny.3 mph36%30.01 "Hg10 mi
12:30 pm59 °FPassing clouds.3 mph39%30.01 "HgN/A
12:00 pm57 °FSunny.3 mph39%30.04 "Hg10 mi
11:30 am55 °FSunny.2 mph44%30.04 "Hg10 mi
11:00 am54 °FSunny.5 mph44%30.04 "Hg10 mi
10:30 am52 °FPassing clouds.5 mph47%30.07 "HgN/A
10:00 am50 °FPassing clouds.3 mph50%30.07 "HgN/A
9:30 am48 °FSunny.2 mph50%30.09 "Hg10 mi
9:00 am45 °FSunny.No wind61%30.09 "Hg10 mi
8:30 am41 °FSunny.No wind70%30.09 "Hg10 mi
8:00 am37 °FSunny.No wind81%30.09 "Hg10 mi
7:30 am32 °FSunny.No wind87%30.09 "Hg10 mi
7:00 am30 °FSunny.2 mph86%30.09 "Hg10 mi
6:30 am30 °FSunny.1 mph86%30.09 "Hg10 mi
6:00 am30 °FClear.2 mph86%30.09 "Hg10 mi
5:30 am32 °FClear.2 mph87%30.09 "Hg10 mi
4:30 am32 °FClear.2 mph80%30.12 "Hg10 mi
4:00 am34 °FClear.No wind75%30.12 "Hg10 mi
3:30 am34 °FClear.No wind75%30.12 "Hg10 mi
3:00 am34 °FClear.2 mph75%30.12 "Hg10 mi
2:30 am34 °FClear.5 mph81%30.15 "Hg10 mi
2:00 am36 °FClear.5 mph75%30.15 "Hg10 mi
1:30 am34 °FClear.6 mph75%30.15 "Hg10 mi
1:00 am36 °FClear.7 mph70%30.15 "Hg10 mi
12:30 am37 °FClear.6 mph70%30.15 "Hg10 mi
12:00 am37 °FClear.8 mph70%30.15 "Hg10 mi
11:30 pm
Sun, Apr 23
41 °FClear.6 mph61%30.15 "Hg10 mi
10:30 pm43 °FClear.7 mph53%30.18 "Hg10 mi
10:00 pm45 °FClear.8 mph49%30.18 "Hg10 mi
9:30 pm46 °FClear.7 mph46%30.18 "Hg10 mi
9:00 pm48 °FClear.8 mph46%30.15 "Hg10 mi
8:30 pm50 °FPassing clouds.8 mph40%30.15 "HgN/A
8:00 pm52 °FSunny.9 mph38%30.15 "Hg10 mi
7:30 pm54 °FSunny.9 mph33%30.15 "Hg10 mi
7:00 pm55 °FSunny.10 mph31%30.15 "Hg10 mi
Weather by CustomWeather, © 2017

See weather overviewHow to use our weather pages